Montauk, NY

12:32 PM EDT on October 01, 2016 (GMT -0400)
Montauk

Weather History for KMTP - July, 2013

Change the Weather History Date:

Sunday, July 21, 2013

  Actual Average (KHTO) Record (KHTO)
Temperature  
Mean Temperature 76 °F -  
Max Temperature 79 °F 82 °F 102 °F (1991)
Min Temperature 71 °F 64 °F 51 °F (1966)
Cooling Degree Days 10    
Growing Degree Days 26 (Base 50)    
Moisture  
Dew Point 67 °F    
Average Humidity 76    
Maximum Humidity 93    
Minimum Humidity 66    
Precipitation  
Precipitation 0.01 in - - ()
Sea Level Pressure  
Sea Level Pressure 29.94 in    
Wind  
Wind Speed 3 mph (NE)    
Max Wind Speed 8 mph    
Max Gust Speed -    
Averages and records for this station are not official NWS values.
T = Trace of Precipitation, MM = Missing Value Source: NWS Daily Summary

Daily Weather History Graph

Daily Weather History Graph

Search for Another Location

Airport or City:

Trip Planner

Search our weather history database for the weather conditions in past years. The results will help you decide how hot, cold, wet, or windy it might be!

Date:

Astronomy

Jul. 21, 2013 Rise Set
Actual Time 5:33 AM EDT 8:14 PM EDT
Civil Twilight 5:01 AM EDT 8:46 PM EDT
Nautical Twilight 4:21 AM EDT 9:26 PM EDT
Astronomical Twilight 3:35 AM EDT 10:11 PM EDT
Moon 7:09 PM EDT (7/21) 4:16 AM EDT (7/21)
Length of Visible Light 15h 44m
Length of Day
14h 40m
Waxing Gibbous, 98% of the Moon is Illuminated
Jul 21
Waxing Gibbous
Jul 22
Full
Jul 29
Last Quarter
Aug 6
New
Aug 14
First Quarter

Hourly Weather History & Observations

Time (EDT) Temp. Dew Point Humidity Pressure Visibility Wind Dir Wind Speed Gust Speed Precip Events Conditions
12:54 AM 77.0 °F 72.0 °F 84% 29.85 in - SSE 3.5 mph - N/A   Unknown
1:54 AM 75.9 °F 72.0 °F 87% 29.87 in - Calm Calm - N/A   Unknown
2:54 AM 75.9 °F 66.0 °F 71% 29.86 in - Calm Calm - N/A   Unknown
3:54 AM 73.9 °F 64.9 °F 73% 29.87 in - NNW 3.5 mph - N/A   Unknown
4:54 AM 73.0 °F 64.0 °F 73% 29.89 in - Calm Calm - N/A   Unknown
5:54 AM 73.0 °F 64.0 °F 73% 29.90 in - Calm Calm - N/A   Unknown
6:54 AM 73.0 °F 64.9 °F 76% 29.91 in - Calm Calm - N/A   Unknown
7:54 AM 73.9 °F 64.0 °F 71% 29.93 in - North 3.5 mph - N/A   Unknown
8:54 AM 73.0 °F 63.0 °F 71% 29.94 in - NNE 3.5 mph - N/A   Unknown
9:54 AM 73.9 °F 64.9 °F 73% 29.96 in - NNE 6.9 mph - N/A   Unknown
10:54 AM 75.0 °F 64.0 °F 69% 29.96 in - NE 8.1 mph - 0.01 in   Unknown
11:54 AM 75.9 °F 64.9 °F 69% 29.96 in - Variable 4.6 mph - N/A   Unknown
12:54 PM 77.0 °F 64.9 °F 66% 29.97 in - NE 6.9 mph - N/A   Unknown
1:54 PM 78.1 °F 66.0 °F 66% 29.97 in - NE 4.6 mph - N/A   Unknown
2:54 PM 77.0 °F 64.9 °F 66% 29.97 in - Variable 3.5 mph - N/A   Unknown
3:54 PM 77.0 °F 66.9 °F 71% 29.97 in - Calm Calm - N/A   Unknown
4:54 PM 77.0 °F 66.9 °F 71% 29.96 in - East 3.5 mph - N/A   Unknown
5:54 PM 79.0 °F 66.9 °F 66% 29.95 in - Variable 3.5 mph - N/A   Unknown
6:54 PM 75.0 °F 68.0 °F 79% 29.96 in - ESE 4.6 mph - N/A   Unknown
7:54 PM 73.0 °F 68.0 °F 84% 29.96 in - Calm Calm - N/A   Unknown
8:54 PM 72.0 °F 69.1 °F 91% 29.97 in - ESE 3.5 mph - N/A   Unknown
9:54 PM 72.0 °F 69.1 °F 91% 29.99 in - Calm Calm - N/A   Unknown
10:54 PM 72.0 °F 70.0 °F 93% 29.99 in - Calm Calm - N/A   Unknown
11:54 PM 71.1 °F 69.1 °F 93% 29.99 in - NNE 3.5 mph - N/A   Unknown